"Pseudo-MPEC" for CDJC0Q2

Created 2025 Oct 27 10:35:06 UT using Find_Orb

Click here for an explanation of pseudo-MPECs

 
 Astrometry: 
     CDJC0Q2*1C2025 10 03.21054423 07 34.626+32 16 11.24   ~A37Z 21.82GVNEOCPG96
     CDJC0Q2 1C2025 10 03.21579923 07 34.367+32 16 06.02   ~A37Z 21.83GVNEOCPG96
     CDJC0Q2 1C2025 10 03.22630323 07 33.791+32 15 54.47   ~A37Z 21.12GVNEOCPG96
     CDJC0Q2 KC2025 10 03.28406323 07 30.731+32 14 54.60   ~A37o 22.07GVNEOCPV06
     CDJC0Q2 KC2025 10 03.28853023 07 30.486+32 14 50.06   ~A37o 21.91GVNEOCPV06
     CDJC0Q2 KC2025 10 03.29299423 07 30.259+32 14 45.35   ~A37o 21.69GVNEOCPV06
     CDJC0Q2 KC2025 10 03.29745923 07 30.022+32 14 40.52   ~A37o 21.66GVNEOCPV06
     CDJC0Q2 KC2025 10 04.09734923 06 52.312+32 00 40.64   ~A435 21.91GVNEOCPV06
     CDJC0Q2 KC2025 10 04.10211323 06 52.085+32 00 35.75   ~A435 21.32GVNEOCPV06
     CDJC0Q2 KC2025 10 04.10687823 06 51.872+32 00 30.78   ~A435 21.70GVNEOCPV06
     CDJC0Q2 KC2025 10 04.11164223 06 51.628+32 00 25.74   ~A435 21.81GVNEOCPV06

Station data:
(G96) Mt. Lemmon Survey  (N32.442729 W110.788720)  US/Arizona.  Observer E.
   J. Christensen. Measurers T. Beuden, V. F. Carvajal, D. Fay, J. B.
   Fazekas, D. C. Fuls, A. R. Gibbs, A. D. Grauer, H. Gröller, J. K. Hogan,
   R. A. Kowalski, S. M. Larson, G. J. Leonard, D. Rankin, R. L. Seaman, F.
   C. Shelly, K. W. Wierzchoś. 1.5-m reflector + 10K CCD.
(V06) Catalina Sky Survey-Kuiper  (N32.416871 W110.732550)  US/Arizona.
   Measurers T. Beuden, V. F. Carvajal, D. Fay, J. B. Fazekas, D. C. Fuls, A.
   R. Gibbs, A. D. Grauer, H. Gröller, J. K. Hogan, R. A. Kowalski, S. M.
   Larson, G. J. Leonard, D. Rankin, R. L. Seaman, F. C. Shelly, K. W.
   Wierzchoś. 1.55-m reflector + CCD.

Orbital elements:  CDJC0Q2
   Perihelion 2025 Mar 21.351854 +/- 239 TT =  8:26:40.1 (JD 2460755.851854)
Epoch 2025 Oct  4.0 TT = JDT 2460952.5   Earth MOID: 0.2542      AutoNEOCP
M  72.109500224 +/- 80              (J2000 ecliptic)
n   0.366693008 +/- 0.0745          Peri.  354.490548 +/- 60
a   1.933159240 +/- 0.262           Node   259.651829 +/- 19
e   0.34391561 +/- 0.172            Incl.   18.404104 +/- 4.5
P   2.688/981.729d         H 19.53  G  0.15   U 11.1  SR
q 1.268315594 +/- 0.237    Q 2.598002886 +/- 0.799
From 11 observations 2025 Oct. 3-4 (21.6 hr); mean residual 0".22
Residuals in arcseconds: 
251003 G96  .28+  .10-    251003 V06  .33-  .20+    251004 V06  .07-  .04+    
251003 G96  .50+  .14+    251003 V06  .25-  .18+    251004 V06  .22+  .01+    
251003 G96  .19+  .48-    251003 V06  .30-  .05+    251004 V06  .11+  .09-    
251003 V06  .18-  .04+    251004 V06  .17-  .00     

Ephemerides (geocentric):
Date (UTC) HH   RA             Dec           delta  r     elong  mag " sig PA
---- --------  ------------   ------------  ------ ------ -----  --- --------
2025 10 27 11  22 59 29.498   +25 00 57.44  1.2283 2.0498 134.3 22.5 3712 178
2025 10 27 12  22 59 29.852   +25 00 15.47  1.2287 2.0500 134.3 22.5 3725 178
2025 10 27 13  22 59 30.211   +24 59 33.51  1.2291 2.0502 134.3 22.5 3737 178
2025 10 27 14  22 59 30.573   +24 58 51.58  1.2295 2.0503 134.2 22.5 3750 178
2025 10 27 15  22 59 30.939   +24 58 09.68  1.2299 2.0505 134.2 22.6 3763 178
2025 10 27 16  22 59 31.308   +24 57 27.79  1.2303 2.0507 134.2 22.6 3775 178
2025 10 27 17  22 59 31.682   +24 56 45.92  1.2307 2.0508 134.1 22.6 3788 178
2025 10 27 18  22 59 32.059   +24 56 04.08  1.2311 2.0510 134.1 22.6 3800 178
2025 10 27 19  22 59 32.440   +24 55 22.26  1.2315 2.0512 134.1 22.6 3813 178
2025 10 27 20  22 59 32.825   +24 54 40.47  1.2319 2.0513 134.1 22.6 3825 178
2025 10 27 21  22 59 33.213   +24 53 58.69  1.2324 2.0515 134.0 22.6 3838 178
2025 10 27 22  22 59 33.605   +24 53 16.94  1.2328 2.0517 134.0 22.6 3851 178
2025 10 27 23  22 59 34.001   +24 52 35.21  1.2332 2.0518 134.0 22.6 3864 179
2025 10 28 00  22 59 34.401   +24 51 53.50  1.2336 2.0520 133.9 22.6 3876 179
2025 10 28 01  22 59 34.804   +24 51 11.81  1.2340 2.0521 133.9 22.6 3889 179
2025 10 28 02  22 59 35.212   +24 50 30.15  1.2344 2.0523 133.9 22.6 3902 179
2025 10 28 03  22 59 35.622   +24 49 48.51  1.2348 2.0525 133.9 22.6 3914 179
2025 10 28 04  22 59 36.037   +24 49 06.89  1.2353 2.0526 133.8 22.6 3927 179
2025 10 28 05  22 59 36.455   +24 48 25.29  1.2357 2.0528 133.8 22.6 3940 179
2025 10 28 06  22 59 36.877   +24 47 43.72  1.2361 2.0530 133.8 22.6 3953 179
2025 10 28 07  22 59 37.303   +24 47 02.17  1.2365 2.0531 133.8 22.6 3966 179
2025 10 28 08  22 59 37.733   +24 46 20.64  1.2369 2.0533 133.7 22.6 3978 179
2025 10 28 09  22 59 38.166   +24 45 39.14  1.2373 2.0535 133.7 22.6 3991 179
2025 10 28 10  22 59 38.603   +24 44 57.66  1.2377 2.0536 133.7 22.6 4004 179
2025 10 28 11  22 59 39.044   +24 44 16.20  1.2382 2.0538 133.6 22.6 4017 179
2025 10 28 12  22 59 39.488   +24 43 34.76  1.2386 2.0540 133.6 22.6 4030 179
2025 10 28 13  22 59 39.936   +24 42 53.35  1.2390 2.0541 133.6 22.6 4043 179
2025 10 28 14  22 59 40.388   +24 42 11.96  1.2394 2.0543 133.6 22.6 4056 179
2025 10 28 15  22 59 40.843   +24 41 30.59  1.2398 2.0544 133.5 22.6 4069 179
2025 10 28 16  22 59 41.302   +24 40 49.25  1.2402 2.0546 133.5 22.6 4082 179
2025 10 28 17  22 59 41.765   +24 40 07.93  1.2407 2.0548 133.5 22.6 4095 179
2025 10 28 18  22 59 42.232   +24 39 26.63  1.2411 2.0549 133.4 22.6 4108 179
2025 10 28 19  22 59 42.702   +24 38 45.35  1.2415 2.0551 133.4 22.6 4121 179
2025 10 28 20  22 59 43.176   +24 38 04.10  1.2419 2.0553 133.4 22.6 4134 179
2025 10 28 21  22 59 43.654   +24 37 22.87  1.2423 2.0554 133.4 22.6 4147 179
2025 10 28 22  22 59 44.135   +24 36 41.67  1.2428 2.0556 133.3 22.6 4160 179
2025 10 28 23  22 59 44.620   +24 36 00.49  1.2432 2.0558 133.3 22.6 4173 179
2025 10 29 00  22 59 45.109   +24 35 19.33  1.2436 2.0559 133.3 22.6 4186 179
2025 10 29 01  22 59 45.601   +24 34 38.19  1.2440 2.0561 133.2 22.6 4200 179
2025 10 29 02  22 59 46.097   +24 33 57.08  1.2444 2.0562 133.2 22.6 4213 179
2025 10 29 03  22 59 46.597   +24 33 15.99  1.2449 2.0564 133.2 22.6 4226 179
2025 10 29 04  22 59 47.100   +24 32 34.93  1.2453 2.0566 133.1 22.6 4239 179
2025 10 29 05  22 59 47.607   +24 31 53.89  1.2457 2.0567 133.1 22.6 4252   0
2025 10 29 06  22 59 48.118   +24 31 12.87  1.2461 2.0569 133.1 22.6 4265   0
2025 10 29 07  22 59 48.632   +24 30 31.88  1.2465 2.0571 133.1 22.6 4279   0
2025 10 29 08  22 59 49.150   +24 29 50.91  1.2470 2.0572 133.0 22.6 4292   0
2025 10 29 09  22 59 49.672   +24 29 09.96  1.2474 2.0574 133.0 22.6 4305   0
2025 10 29 10  22 59 50.197   +24 28 29.04  1.2478 2.0576 133.0 22.6 4319   0